CXA126 ZGHA-ZBTJ

Flight info

Callsign CXA126
Flight time N/A
Altitude 37100
Route GUD9W GUDRO W56 LEBUN/K0850S1160 W56 NUDKU/K0848S1130 W56 GUVRI W85 OMDEK OMDEK3H
Aircraft B738/M-SDE2E3FGHIRWXY/LB1

Departure

Time N/A
Airport Changsha Huanghua International Airport (ZGHA)

Arrival

Time 2026-04-24 15:12
Airport Tianjin Binhai International Airport (ZBTJ)
Time Latitude Longitude Altitude Speed Heading
2026-04-24 13:25 28.49136 113.48106 21084 ft 424 kts 360°
2026-04-24 13:25 28.52078 113.48316 21543 ft 426 kts 359°
2026-04-24 13:26 28.55058 113.48528 22009 ft 429 kts 359°
2026-04-24 13:26 28.58027 113.48741 22531 ft 430 kts 360°
2026-04-24 13:26 28.61033 113.48956 23034 ft 432 kts 360°
2026-04-24 13:26 28.64030 113.49171 23458 ft 435 kts 359°
2026-04-24 13:27 28.67082 113.49390 23826 ft 438 kts 359°
2026-04-24 13:27 28.70123 113.49608 24154 ft 441 kts 359°
2026-04-24 13:27 28.73205 113.49829 24493 ft 444 kts 359°
2026-04-24 13:27 28.76283 113.50050 24825 ft 446 kts 359°
2026-04-24 13:28 28.79407 113.50274 25143 ft 449 kts 358°
2026-04-24 13:28 28.82513 113.50495 25472 ft 452 kts 358°
2026-04-24 13:28 28.85683 113.50721 25716 ft 457 kts 358°
2026-04-24 13:28 28.88874 113.50948 25950 ft 461 kts 358°
2026-04-24 13:29 28.92079 113.51178 26276 ft 463 kts 358°
2026-04-24 13:29 28.95292 113.51409 26605 ft 464 kts 358°
2026-04-24 13:29 28.98532 113.51643 26896 ft 467 kts 358°
2026-04-24 13:29 29.01786 113.51877 27157 ft 469 kts 357°
2026-04-24 13:30 29.05055 113.52112 27430 ft 471 kts 357°
2026-04-24 13:30 29.08329 113.52348 27708 ft 473 kts 357°
2026-04-24 13:30 29.11622 113.52585 27966 ft 475 kts 357°
2026-04-24 13:30 29.14937 113.52824 28205 ft 478 kts 356°
2026-04-24 13:31 29.18258 113.53065 28478 ft 479 kts 356°
2026-04-24 13:31 29.21592 113.53307 28862 ft 478 kts 356°
2026-04-24 13:31 29.24903 113.53548 29325 ft 475 kts 356°
2026-04-24 13:31 29.28201 113.53787 29741 ft 474 kts 356°
2026-04-24 13:32 29.31488 113.54042 30089 ft 475 kts 356°
2026-04-24 13:32 29.34799 113.54325 30309 ft 478 kts 356°
2026-04-24 13:32 29.38118 113.54622 30639 ft 477 kts 357°
2026-04-24 13:32 29.41374 113.54918 31053 ft 474 kts 356°
2026-04-24 13:33 29.44695 113.55219 31442 ft 472 kts 356°
2026-04-24 13:33 29.47925 113.55507 31737 ft 471 kts 356°
2026-04-24 13:33 29.51202 113.55794 31975 ft 473 kts 356°
2026-04-24 13:33 29.54482 113.56081 32251 ft 473 kts 356°
2026-04-24 13:34 29.57760 113.56368 32578 ft 471 kts 356°
2026-04-24 13:34 29.61028 113.56655 32988 ft 469 kts 356°
2026-04-24 13:34 29.64274 113.56940 33323 ft 468 kts 356°
2026-04-24 13:35 29.70025 113.57444 33812 ft 468 kts 356°
2026-04-24 13:35 29.73318 113.57733 34055 ft 468 kts 356°
2026-04-24 13:35 29.76519 113.58014 34298 ft 468 kts 356°
2026-04-24 13:35 29.79762 113.58300 34548 ft 467 kts 356°
2026-04-24 13:36 29.83005 113.58586 34774 ft 467 kts 356°
2026-04-24 13:36 29.86240 113.58871 34987 ft 467 kts 356°
2026-04-24 13:36 29.89476 113.59156 35227 ft 467 kts 356°
2026-04-24 13:36 29.92722 113.59490 35392 ft 472 kts
2026-04-24 13:37 29.95963 113.60294 35594 ft 481 kts 10°
2026-04-24 13:37 29.99114 113.61682 35837 ft 487 kts 16°
2026-04-24 13:37 30.02212 113.63248 36072 ft 487 kts 17°
2026-04-24 13:37 30.05307 113.64851 36266 ft 487 kts 17°
2026-04-24 13:38 30.08400 113.66452 36478 ft 487 kts 17°
2026-04-24 13:38 30.11493 113.68036 36723 ft 486 kts 16°
2026-04-24 13:38 30.14589 113.69602 36902 ft 486 kts 16°
2026-04-24 13:38 30.17690 113.71158 37071 ft 486 kts 16°
2026-04-24 13:39 30.23919 113.74266 37151 ft 489 kts 16°
2026-04-24 13:39 30.30143 113.77378 37148 ft 487 kts 16°
2026-04-24 13:40 30.36358 113.80491 37208 ft 487 kts 17°
2026-04-24 13:40 30.42580 113.83613 37169 ft 488 kts 17°
2026-04-24 13:41 30.48807 113.86744 37149 ft 488 kts 17°
2026-04-24 13:41 30.55032 113.89878 37157 ft 488 kts 17°
2026-04-24 13:42 30.61253 113.93013 37174 ft 488 kts 17°
2026-04-24 13:42 30.67450 113.96091 37167 ft 486 kts 16°
2026-04-24 13:43 30.73655 113.99214 37165 ft 488 kts 19°
2026-04-24 13:43 30.79758 114.02702 37169 ft 487 kts 19°
2026-04-24 13:44 30.85879 114.06037 37182 ft 485 kts 18°
2026-04-24 13:44 30.92007 114.09329 37159 ft 484 kts 19°
2026-04-24 13:45 30.98111 114.12642 37153 ft 483 kts 19°
2026-04-24 13:45 31.04161 114.15939 37157 ft 483 kts 19°
2026-04-24 13:46 31.10261 114.19256 37157 ft 484 kts 19°
2026-04-24 13:46 31.16361 114.22577 37156 ft 483 kts 19°
2026-04-24 13:47 31.22451 114.25899 37152 ft 484 kts 19°
2026-04-24 13:47 31.28551 114.29232 37175 ft 483 kts 19°
2026-04-24 13:48 31.34696 114.32326 37154 ft 476 kts
2026-04-24 13:48 31.41094 114.33509 37161 ft 459 kts 354°
2026-04-24 13:49 31.47475 114.33614 37157 ft 459 kts 354°
2026-04-24 13:49 31.53866 114.33743 37160 ft 460 kts 354°
2026-04-24 13:50 31.60263 114.33927 37160 ft 460 kts 354°
2026-04-24 13:50 31.66672 114.34124 37161 ft 460 kts 354°
2026-04-24 13:51 31.73078 114.34316 37158 ft 461 kts 354°
2026-04-24 13:51 31.79498 114.34458 37185 ft 462 kts 354°
2026-04-24 13:52 31.85930 114.34616 37163 ft 463 kts 354°
2026-04-24 13:52 31.92336 114.34828 37148 ft 464 kts 355°
2026-04-24 13:53 31.98780 114.35042 37152 ft 463 kts 355°
2026-04-24 13:53 32.05220 114.35249 37167 ft 463 kts 355°
2026-04-24 13:54 32.11662 114.35453 37153 ft 463 kts 355°
2026-04-24 13:54 32.18105 114.35658 37143 ft 463 kts 355°
2026-04-24 13:55 32.24549 114.35863 37148 ft 462 kts 355°
2026-04-24 13:55 32.30994 114.36249 37158 ft 465 kts 358°
2026-04-24 13:56 32.37398 114.36889 37152 ft 465 kts 358°
2026-04-24 13:56 32.43836 114.37513 37144 ft 464 kts 358°
2026-04-24 13:57 32.50262 114.38094 37145 ft 463 kts 358°
2026-04-24 13:57 32.56684 114.38664 37145 ft 462 kts 358°
2026-04-24 13:58 32.63098 114.39238 37144 ft 462 kts 358°
2026-04-24 13:58 32.69507 114.39823 37146 ft 462 kts 358°
2026-04-24 13:59 32.75912 114.40425 37147 ft 461 kts 358°
2026-04-24 13:59 32.82312 114.41027 37153 ft 462 kts 358°
2026-04-24 14:00 32.88723 114.41629 37147 ft 461 kts 358°
2026-04-24 14:00 32.95077 114.42226 37149 ft 461 kts 358°
2026-04-24 14:01 33.01486 114.42829 37174 ft 461 kts 358°
2026-04-24 14:01 33.07894 114.43432 37156 ft 462 kts 358°
2026-04-24 14:02 33.14301 114.44037 37143 ft 462 kts 358°
2026-04-24 14:02 33.20711 114.44643 37148 ft 462 kts 358°
2026-04-24 14:03 33.27128 114.45250 37158 ft 462 kts 359°
2026-04-24 14:03 33.33548 114.45858 37146 ft 462 kts 359°
2026-04-24 14:04 33.39922 114.46460 37143 ft 462 kts 359°
2026-04-24 14:04 33.46338 114.47068 37144 ft 462 kts 359°
2026-04-24 14:05 33.52754 114.47677 37148 ft 463 kts 359°
2026-04-24 14:05 33.59169 114.48287 37144 ft 462 kts 359°
2026-04-24 14:06 33.65584 114.48887 37143 ft 462 kts 359°
2026-04-24 14:06 33.71992 114.49468 37153 ft 462 kts 359°
2026-04-24 14:07 33.78400 114.50051 37149 ft 461 kts 359°
2026-04-24 14:07 33.84802 114.50641 37144 ft 461 kts 359°
2026-04-24 14:08 33.91194 114.51248 37142 ft 461 kts 359°
2026-04-24 14:08 33.97583 114.51858 37148 ft 460 kts 359°
2026-04-24 14:09 34.03956 114.52466 37144 ft 460 kts 359°
2026-04-24 14:09 34.10294 114.53070 37142 ft 459 kts 359°
2026-04-24 14:10 34.16663 114.53677 37145 ft 459 kts 359°
2026-04-24 14:10 34.23046 114.54287 37144 ft 460 kts 359°
2026-04-24 14:11 34.29420 114.54898 37147 ft 460 kts 359°
2026-04-24 14:12 34.38991 114.55816 37148 ft 460 kts 359°
2026-04-24 14:12 34.45370 114.56429 37154 ft 460 kts 360°
2026-04-24 14:13 34.51755 114.57038 37147 ft 460 kts 360°
2026-04-24 14:13 34.58139 114.57643 37148 ft 460 kts 360°
2026-04-24 14:14 34.64523 114.58249 37147 ft 460 kts 360°
2026-04-24 14:14 34.74106 114.59163 37144 ft 460 kts
2026-04-24 14:15 34.80481 114.59772 37143 ft 460 kts
2026-04-24 14:15 34.86854 114.60382 37140 ft 459 kts
2026-04-24 14:16 34.93223 114.60993 37144 ft 459 kts
2026-04-24 14:17 35.02761 114.61909 37139 ft 458 kts
2026-04-24 14:17 35.12278 114.62824 37154 ft 457 kts
2026-04-24 14:18 35.18618 114.63436 37137 ft 457 kts
2026-04-24 14:18 35.24915 114.64044 37137 ft 457 kts
2026-04-24 14:19 35.31247 114.64657 37135 ft 456 kts
2026-04-24 14:19 35.37567 114.65269 37143 ft 456 kts
2026-04-24 14:20 35.43907 114.65884 37131 ft 456 kts
2026-04-24 14:20 35.49155 114.66394 37128 ft 455 kts
2026-04-24 14:21 35.55469 114.67009 37127 ft 455 kts
2026-04-24 14:21 35.61785 114.67624 37132 ft 455 kts
2026-04-24 14:22 35.68087 114.68240 37124 ft 454 kts
2026-04-24 14:23 35.77531 114.69164 37121 ft 454 kts
2026-04-24 14:23 35.83830 114.69781 37121 ft 453 kts
2026-04-24 14:24 35.90115 114.70398 37115 ft 453 kts
2026-04-24 14:24 35.96397 114.71016 37121 ft 453 kts
2026-04-24 14:25 36.02679 114.71635 37129 ft 453 kts
2026-04-24 14:25 36.08959 114.72254 37117 ft 453 kts
2026-04-24 14:26 36.15205 114.72860 37119 ft 453 kts
2026-04-24 14:26 36.21498 114.73468 37113 ft 453 kts
2026-04-24 14:27 36.27781 114.74078 37105 ft 453 kts
2026-04-24 14:27 36.34077 114.74683 37110 ft 454 kts
2026-04-24 14:28 36.40259 114.76485 37106 ft 462 kts 20°
2026-04-24 14:28 36.46096 114.79859 37111 ft 463 kts 22°
2026-04-24 14:29 36.51903 114.83327 37106 ft 463 kts 22°
2026-04-24 14:29 36.57731 114.86759 37097 ft 463 kts 22°
2026-04-24 14:30 36.63564 114.90157 37095 ft 463 kts 22°
2026-04-24 14:30 36.69388 114.93543 37098 ft 462 kts 22°
2026-04-24 14:31 36.75207 114.96932 37087 ft 461 kts 22°
2026-04-24 14:31 36.81009 115.00319 37083 ft 460 kts 22°
2026-04-24 14:32 36.86760 115.03683 37101 ft 459 kts 22°
2026-04-24 14:32 36.92541 115.07070 37079 ft 458 kts 22°
2026-04-24 14:33 36.98309 115.10454 37082 ft 457 kts 22°
2026-04-24 14:33 37.04071 115.13841 37101 ft 457 kts 22°
2026-04-24 14:34 37.09816 115.17224 37079 ft 456 kts 22°
2026-04-24 14:34 37.15550 115.20606 37082 ft 455 kts 22°
2026-04-24 14:35 37.21282 115.23992 37086 ft 455 kts 22°
2026-04-24 14:35 37.26995 115.27374 37090 ft 454 kts 22°
2026-04-24 14:36 37.32713 115.30763 37083 ft 454 kts 22°
2026-04-24 14:36 37.38392 115.34135 37080 ft 454 kts 22°
2026-04-24 14:37 37.44105 115.37533 37096 ft 454 kts 22°
2026-04-24 14:37 37.49819 115.40937 37082 ft 455 kts 22°
2026-04-24 14:38 37.55541 115.44353 37079 ft 455 kts 22°
2026-04-24 14:38 37.61264 115.47775 37089 ft 455 kts 22°
2026-04-24 14:39 37.66987 115.51203 37077 ft 455 kts 22°
2026-04-24 14:39 37.72705 115.54634 37076 ft 454 kts 22°
2026-04-24 14:40 37.78500 115.57736 37068 ft 449 kts 12°
2026-04-24 14:40 37.84638 115.58682 37070 ft 442 kts 355°
2026-04-24 14:41 37.90752 115.58171 37075 ft 440 kts 353°
2026-04-24 14:41 37.96866 115.57639 37070 ft 439 kts 354°
2026-04-24 14:42 38.02961 115.57174 37086 ft 439 kts 354°
2026-04-24 14:42 38.09016 115.56733 37076 ft 438 kts 355°
2026-04-24 14:43 38.15114 115.56445 37078 ft 438 kts 355°
2026-04-24 14:43 38.21193 115.56003 37078 ft 438 kts 354°
2026-04-24 14:44 38.27272 115.56514 37083 ft 442 kts 11°
2026-04-24 14:44 38.33050 115.59289 37088 ft 447 kts 24°
2026-04-24 14:45 38.38605 115.62915 37076 ft 448 kts 24°
2026-04-24 14:45 38.44191 115.66472 37078 ft 449 kts 23°
2026-04-24 14:46 38.49423 115.70872 36956 ft 458 kts 42°
2026-04-24 14:46 38.51480 115.74004 36310 ft 464 kts 54°
2026-04-24 14:46 38.53048 115.77609 35747 ft 464 kts 60°
2026-04-24 14:46 38.54489 115.81306 35070 ft 466 kts 61°
2026-04-24 14:47 38.55923 115.85031 34402 ft 467 kts 60°
2026-04-24 14:47 38.57374 115.88756 33636 ft 469 kts 60°
2026-04-24 14:47 38.58848 115.92478 32869 ft 470 kts 60°
2026-04-24 14:47 38.60335 115.96196 32116 ft 470 kts 60°
2026-04-24 14:48 38.61827 115.99913 31365 ft 470 kts 60°
2026-04-24 14:48 38.63321 116.03638 30601 ft 471 kts 60°
2026-04-24 14:48 38.64767 116.07400 29762 ft 473 kts 66°
2026-04-24 14:48 38.65526 116.11458 28847 ft 478 kts 84°
2026-04-24 14:49 38.65484 116.15698 28342 ft 471 kts 91°
2026-04-24 14:49 38.65310 116.19860 27524 ft 470 kts 91°
2026-04-24 14:49 38.65150 116.23993 26947 ft 463 kts 91°
2026-04-24 14:49 38.65023 116.28096 26331 ft 459 kts 90°
2026-04-24 14:50 38.64994 116.32151 25709 ft 453 kts 83°
2026-04-24 14:50 38.65697 116.36030 25150 ft 443 kts 65°
2026-04-24 14:50 38.67229 116.39387 24600 ft 433 kts 49°
2026-04-24 14:50 38.69432 116.41970 23952 ft 427 kts 30°
2026-04-24 14:51 38.72093 116.43497 23516 ft 415 kts 12°
2026-04-24 14:51 38.74899 116.43878 23255 ft 401 kts 358°
2026-04-24 14:51 38.77707 116.43679 23009 ft 411 kts 354°
2026-04-24 14:51 38.80598 116.43346 22614 ft 420 kts 353°
2026-04-24 14:52 38.83495 116.42977 22051 ft 416 kts 353°
2026-04-24 14:52 38.86367 116.42601 21518 ft 410 kts 353°
2026-04-24 14:52 38.89180 116.42228 21004 ft 404 kts 353°
2026-04-24 14:52 38.91956 116.41855 20483 ft 398 kts 353°
2026-04-24 14:53 38.94693 116.41484 19983 ft 393 kts 353°
2026-04-24 14:53 38.97390 116.41119 19496 ft 388 kts 352°
2026-04-24 14:53 39.00069 116.40763 18998 ft 384 kts 353°
2026-04-24 14:53 39.02709 116.40415 18535 ft 380 kts 353°
2026-04-24 14:54 39.05318 116.40068 18155 ft 374 kts 352°
2026-04-24 14:54 39.07851 116.39739 18079 ft 359 kts 352°
2026-04-24 14:54 39.10262 116.39459 17957 ft 347 kts 357°
2026-04-24 14:54 39.12603 116.39919 17850 ft 338 kts 20°
2026-04-24 14:55 39.13998 116.40847 17729 ft 334 kts 34°
2026-04-24 14:55 39.15965 116.43827 17280 ft 332 kts 65°
2026-04-24 14:55 39.16509 116.46687 16963 ft 330 kts 88°
2026-04-24 14:55 39.16146 116.49578 16654 ft 328 kts 112°
2026-04-24 14:56 39.14944 116.52029 16360 ft 324 kts 135°
2026-04-24 14:56 39.13280 116.53965 16079 ft 320 kts 141°
2026-04-24 14:56 39.11561 116.55784 15767 ft 319 kts 142°
2026-04-24 14:56 39.09827 116.57597 15324 ft 323 kts 143°
2026-04-24 14:57 39.08080 116.59433 14890 ft 324 kts 143°
2026-04-24 14:57 39.06331 116.61285 14460 ft 326 kts 143°
2026-04-24 14:57 39.04596 116.63133 14168 ft 320 kts 143°
2026-04-24 14:57 39.02910 116.64939 13868 ft 312 kts 143°
2026-04-24 14:58 39.01269 116.66711 13548 ft 304 kts 142°
2026-04-24 14:58 38.99655 116.68453 13224 ft 301 kts 142°
2026-04-24 14:58 38.98043 116.70184 12917 ft 303 kts 142°
2026-04-24 14:58 38.96435 116.71897 12614 ft 305 kts 142°
2026-04-24 14:59 38.94771 116.73662 12313 ft 307 kts 143°
2026-04-24 14:59 38.93119 116.75418 12019 ft 308 kts 142°
2026-04-24 14:59 38.91499 116.77139 11716 ft 305 kts 142°
2026-04-24 14:59 38.89873 116.78857 11412 ft 302 kts 143°
2026-04-24 15:00 38.88254 116.80564 11113 ft 299 kts 143°
2026-04-24 15:00 38.86654 116.82265 10817 ft 297 kts 142°
2026-04-24 15:00 38.85177 116.84099 10498 ft 298 kts 124°
2026-04-24 15:00 38.84539 116.86595 10203 ft 298 kts 91°
2026-04-24 15:01 38.84996 116.89149 9936 ft 296 kts 63°
2026-04-24 15:01 38.86140 116.91326 9652 ft 296 kts 46°
2026-04-24 15:01 38.87735 116.92981 9347 ft 296 kts 34°
2026-04-24 15:01 38.89448 116.94468 9037 ft 297 kts 32°
2026-04-24 15:02 38.91174 116.95937 8726 ft 297 kts 32°
2026-04-24 15:02 38.92895 116.97400 8427 ft 297 kts 32°
2026-04-24 15:02 38.94619 116.98875 8127 ft 297 kts 33°
2026-04-24 15:02 38.96344 117.00359 7772 ft 299 kts 33°
2026-04-24 15:03 38.97486 117.01345 7534 ft 299 kts 33°
2026-04-24 15:03 38.99802 117.03352 7041 ft 300 kts 33°
2026-04-24 15:03 39.01511 117.04836 6667 ft 294 kts 33°
2026-04-24 15:03 39.03184 117.06294 6287 ft 287 kts 33°
2026-04-24 15:04 39.04840 117.07737 5781 ft 286 kts 33°
2026-04-24 15:04 39.06468 117.09156 5442 ft 279 kts 33°
2026-04-24 15:04 39.08045 117.10533 5156 ft 270 kts 33°
2026-04-24 15:04 39.09576 117.11870 4892 ft 262 kts 33°
2026-04-24 15:05 39.11014 117.13127 4805 ft 247 kts 33°
2026-04-24 15:05 39.12404 117.14344 4696 ft 234 kts 32°
2026-04-24 15:05 39.13709 117.15485 4587 ft 220 kts 32°
2026-04-24 15:05 39.14937 117.16561 4443 ft 209 kts 32°
2026-04-24 15:06 39.16149 117.17621 4064 ft 212 kts 32°
2026-04-24 15:06 39.17377 117.18694 3762 ft 214 kts 32°
2026-04-24 15:06 39.18620 117.19783 3418 ft 216 kts 32°
2026-04-24 15:06 39.19861 117.20870 3132 ft 214 kts 32°
2026-04-24 15:07 39.21082 117.21941 2868 ft 210 kts 31°
2026-04-24 15:07 39.22279 117.22992 2601 ft 206 kts 31°
2026-04-24 15:07 39.23458 117.24028 2348 ft 204 kts 30°
2026-04-24 15:07 39.24609 117.25038 2335 ft 199 kts 30°
2026-04-24 15:08 39.25681 117.26115 2330 ft 195 kts 50°
2026-04-24 15:08 39.26054 117.27167 2286 ft 190 kts 87°
2026-04-24 15:08 39.25707 117.28693 2305 ft 174 kts 141°
2026-04-24 15:08 39.24751 117.29527 2290 ft 171 kts 156°
2026-04-24 15:09 39.23728 117.30308 2082 ft 169 kts 160°
2026-04-24 15:09 39.22694 117.30986 1859 ft 164 kts 162°
2026-04-24 15:09 39.21688 117.31612 1680 ft 155 kts 164°
2026-04-24 15:09 39.20726 117.32203 1455 ft 147 kts 163°
2026-04-24 15:10 39.19809 117.32766 1257 ft 146 kts 163°
2026-04-24 15:10 39.18894 117.33328 1070 ft 147 kts 162°
2026-04-24 15:10 39.17971 117.33896 882 ft 146 kts 160°
2026-04-24 15:10 39.17065 117.34454 686 ft 143 kts 158°
2026-04-24 15:11 39.16152 117.35013 487 ft 147 kts 158°
2026-04-24 15:11 39.15230 117.35584 320 ft 149 kts 156°
2026-04-24 15:11 39.14363 117.36116 145 ft 150 kts 156°
2026-04-24 15:11 39.13430 117.36695 20 ft 137 kts 153°
2026-04-24 15:12 39.12771 117.37101 19 ft 75 kts 154°
2026-04-24 15:12 39.12466 117.37249 17 ft 13 kts 174°
2026-04-24 15:12 39.12376 117.37252 18 ft 10 kts 181°
2026-04-24 15:13 39.12318 117.37248 18 ft 8 kts 194°
2026-04-24 15:13 39.12294 117.37185 18 ft 10 kts 282°
2026-04-24 15:13 39.12360 117.37121 19 ft 15 kts 333°
2026-04-24 15:13 39.12468 117.37056 18 ft 19 kts 335°
2026-04-24 15:14 39.12586 117.36984 19 ft 19 kts 333°
2026-04-24 15:14 39.12702 117.36912 19 ft 18 kts 334°
2026-04-24 15:14 39.12821 117.36839 18 ft 17 kts 334°
2026-04-24 15:14 39.12844 117.36736 18 ft 13 kts 244°
2026-04-24 15:15 39.12805 117.36634 18 ft 12 kts 244°
2026-04-24 15:15 39.12768 117.36535 18 ft 12 kts 244°
2026-04-24 15:15 39.12737 117.36449 20 ft 11 kts 244°
2026-04-24 15:15 39.12690 117.36427 19 ft 8 kts 139°
2026-04-24 15:16 39.12643 117.36467 18 ft 9 kts 154°
2026-04-24 15:16 39.12583 117.36458 19 ft 11 kts 239°
2026-04-24 15:16 39.12542 117.36349 18 ft 15 kts 244°
2026-04-24 15:16 39.12497 117.36228 18 ft 15 kts 244°
2026-04-24 15:17 39.12454 117.36112 18 ft 14 kts 244°
2026-04-24 15:17 39.12413 117.36002 18 ft 13 kts 244°
2026-04-24 15:17 39.12375 117.35897 18 ft 13 kts 244°
2026-04-24 15:17 39.12330 117.35779 18 ft 16 kts 244°
2026-04-24 15:18 39.12321 117.35670 18 ft 12 kts 315°
2026-04-24 15:18 39.12399 117.35626 18 ft 12 kts 354°
2026-04-24 15:18 39.12481 117.35634 18 ft 12 kts
2026-04-24 15:18 39.12543 117.35650 18 ft 7 kts 53°
2026-04-24 15:19 39.12548 117.35708 18 ft 4 kts 92°
2026-04-24 15:19 39.12548 117.35720 18 ft 0 kts 92°